Fort Dodge Regional Airport
KFOD : now visible

Airfield :











YOU CAN JOIN US ON...

 
LOGIN :

Register | Disclaimer

   EN    FR    IT 

 









Legend :    VFR   Marginal VFR   IFR   Intensive IFR   Very Intensive IFR
Visi :
Ceiling :
>= 8 km
>= 3000ft
5 to 8 km
1000 to 3000 ft
1500m to 5 km
500 to 1000 ft
800 to 1500m
200 to 500 ft
< 800m
< 200 ft
Symbols :   Thunderstorms  Fog  Heavy snow  Heavy precipitations  Wind > 20 kt







- Airport Elevation : 1156 ft
- IATA code : FOD


KFOD - Fort Dodge Regional

CURRENT METAR :
  • 191356Z AUTO 20012KT 10SM CLR 28/24 A2978 RMK AO2 SLP097 T02830244

EXPIRED METARs :
  • 191256Z AUTO 19007KT 10SM CLR 27/24 A2977 RMK AO2 SLP093 T02670244
  • 191156Z AUTO 19004KT 10SM CLR 25/24 A2977 RMK AO2 SLP093 70003 T02500239 10272 20244 53016

TAF KFOD
Valid from the 19 at 12:00 until the 20 at 12:00 UTC


191120Z 1912/2012 19006KT P6SM SKC
FM191600 20012G19KT P6SM SKC
FM200000 18007KT P6SM SCT250
KZMP FIR / North America



MET'MAP, your aeronautical weather chart ! - Copyright ORBIFLY December 2007 - Disclaimer

ORBIFLY MET'MAP TEAM :

Programming & Development : Alexandra Zaïnal
Concept & Development : Baudouin d'Aumeries
Co-Development & Prog : Marc-Olivier Méhu
Technical & hardware support : Manuel Goepfert

Contact : metmap@orbifly.com




SOURCES & CREDITS :

   NOAA       Earth
Advisory